Location: Lane
(34.3181°N, 86.2403°W)
Time: 22:49:31
(UTC+00:00)

OTV 5 (USA 277) - Visible Passes

Search period start: 18 June 2018 00:00
Search period end: 28 June 2018 00:00
Orbit: 313 x 320 km, 54.5° (Epoch: 18 June)

Date Brightness Start Highest point End Pass type
(mag) Time Alt. Az. Time Alt. Az. Time Alt. Az.
18 Jun ? 02:43:14 10° WNW 02:44:13 11° NW 02:45:14 10° NNW visible
18 Jun ? 09:04:32 10° NNW 09:07:03 34° NE 09:09:34 10° ESE visible
19 Jun ? 09:18:49 10° NW 09:21:30 59° SW 09:24:10 10° SSE visible
20 Jun ? 01:36:49 10° W 01:38:45 18° NW 01:40:41 10° N visible
20 Jun ? 07:59:30 10° NNW 08:01:31 20° NE 08:01:31 20° NE visible
20 Jun?09:39:40S09:39:40S09:31:48WNWvisible
